Terminal Aerodrome Forecast
Issued by NWS Blacksburg, VA

Home | Current Version | Previous Version | Text Only | Print | Product List | Glossary On
Versions: 1 2 3 4 5 6 7 8 9 10 11 12 13 14 15 16 17 18 19 20 21 22 23 24
000
FTUS41 KRNK 312332
TAFLYH
TAF
KLYH 312332Z 0100/0124 13004KT P6SM FEW040 BKN110
     FM010500 00000KT P6SM SCT120
     FM010900 00000KT 3SM BR SCT006
     FM011200 01004KT P6SM SKC
     FM012100 07005KT P6SM SCT050=

USA.gov is the U.S. government's official web portal to all federal, state and local government web resources and services.